SCP
0 0 0 0 0 0 0 0 0 0 0 0 0 0 0 -0 0 0 0 0 0 0 0 0 0 0 0 0 1 1 1 0 0 0 0 0 0 0
0 0 0 0 0 0 0 0 0 0 0 0 0 0 0 -0 0 0 0 0 0 0 0 0 0 0 0 0 0 0 0 1 0 0 0 0 0 0
0 0 0 0 0 0 0 0 0 0 0 0 0 0 0 -0 -0 0 0 0 0 0 0 0 0 0 0 0 0 0 0 0 0 0 0 0 0 0
0 0 0 0 0 0 0 0 0 0 0 0 0 0 0 0 0 0 0 0 0 0 0 0 0 0 0 0 0 0 0 0 0 0 0 0 0 0
0 0 0 0 0 0 0 0 0 0 0 0 0 0 0 0 0 0 0 -0 0 0 0 0 0 0 0 0 0 0 0 0 0 0 0 0 0 0
0 0 0 0 0 0 0 0 0 0 0 0 0 0 0 0 0 0 0 0 -0 0 0 0 0 0 0 0 0 0 0 0 0 0 0 0 0 0
0 0 0 0 0 0 0 0 0 0 0 0 0 0 0 0 0 0 0 0 0 -0 0 0 0 0 0 0 0 0 0 0 0 0 0 0 0 0
0 0 0 0 0 0 0 0 0 0 0 0 0 0 0 0 0 0 0 0 -0 -0 -0 0 0 0 0 0 0 0 0 0 0 0 0 0 0 0
0 0 0 0 0 0 0 0 0 0 0 0 0 0 0 0 0 0 0 0 0 0 0 0 0 0 0 0 0 0 0 0 0 0 0 0 0 0
0 0 0 0 0 0 0 0 0 0 0 0 0 0 0 0 0 0 0 0 0 0 0 0 0 0 0 -0 -0 0 0 0 0 0 0 0 0 0
0 0 0 0 0 0 0 0 0 0 0 0 0 0 0 0 0 0 0 0 0 0 0 0 0 0 0 0 -0 -0 -0 0 0 0 0 0 0 0
0 0 0 0 0 0 0 0 0 0 0 0 0 0 0 0 0 0 0 0 0 0 0 0 0 0 0 0 0 0 0 0 0 0 0 0 0 0
0 0 0 0 0 0 0 0 0 0 0 0 0 0 0 0 0 0 0 0 0 0 0 0 0 0 0 0 0 0 0 0 0 0 0 0 0 0
0 0 0 0 0 0 0 0 0 0 0 0 0 0 0 0 0 0 0 0 0 0 0 0 0 0 0 0 0 0 0 0 0 0 0 0 0 0
0 0 0 0 0 0 0 0 0 0 0 0 0 0 0 0 0 0 0 0 0 0 0 0 0 0 0 0 0 0 0 0 0 0 0 0 0 0
0 0 0 0 0 0 0 0 0 0 0 0 0 0 0 0 0 0 0 0 0 0 0 0 0 -0 0 0 0 0 0 0 0 0 0 0 0 0
0 0 0 0 0 0 0 0 0 0 0 0 0 0 0 0 0 0 0 0 0 -0 0 0 0 0 -0 0 0 0 0 0 0 0 0 0 0 0
0 0 0 0 0 0 0 0 0 0 0 0 0 0 0 0 0 0 0 0 0 -0 0 0 -0 -0 0 0 0 0 0 -0 0 0 0 0 0 0
0 -0 -0 0 0 0 0 0 0 0 0 0 0 0 0 0 0 0 0 0 0 0 0 0 0 0 0 0 0 0 0 -0 0 0 0 0 0 0
0 -0 -0 0 0 0 0 0 0 0 0 0 0 0 0 0 0 0 0 0 0 0 0 0 0 0 0 0 0 0 0 0 0 0 0 0 0 0
0 0 0 0 0 0 0 0 0 0 0 0 0 0 0 0 0 0 0 0 0 0 0 0 0 0 0 0 0 0 0 -0 0 0 0 0 0 0
0 0 0 -0 -0 0 0 0 0 0 0 0 0 0 0 0 0 0 0 0 0 0 0 0 0 0 0 0 0 0 0 0 -0 -0 -0 0 0 0
0 0 0 0 -0 0 0 0 0 0 0 0 0 0 0 0 0 0 0 0 0 0 0 0 0 0 0 0 0 0 0 0 0 0 0 -0 -0 -0
Wind_Speed_500mb
55 44 47 60 67 61 54 54 61 70 63 56 58 53 56 55 45 46 47 42 51 44 50 60 45 48 47 54 54 43 38 34 36 38 31 31 31 29
50 64 65 52 51 56 50 49 50 59 71 60 60 62 63 66 61 54 46 42 43 37 37 39 54 52 59 72 65 63 73 41 41 47 39 38 35 33
58 48 49 52 46 46 48 53 56 56 62 68 67 70 75 79 72 56 48 46 49 45 45 44 51 69 73 78 70 67 66 68 57 59 49 41 40 34
53 54 41 49 55 53 52 51 54 61 70 75 76 79 71 60 57 59 55 45 34 39 51 53 49 51 56 62 60 62 61 65 67 60 53 46 41 39
52 44 48 45 43 44 47 54 53 46 49 59 65 62 61 59 70 75 67 57 40 32 34 44 44 46 43 46 55 65 65 68 71 67 59 53 47 43
44 38 39 38 43 52 51 50 49 55 59 61 57 58 56 54 52 51 53 60 58 35 38 33 34 31 30 37 45 53 65 71 73 72 67 60 53 50
37 37 34 43 37 39 43 55 63 58 58 60 56 53 53 52 53 56 60 51 65 61 59 27 32 19 17 29 38 48 51 60 65 67 67 65 59 57
36 45 44 40 36 48 48 47 53 59 60 61 64 65 64 62 58 58 61 64 65 62 48 56 48 32 19 8 15 36 50 57 60 62 66 68 64 58
37 43 47 36 37 39 48 54 55 49 48 55 61 63 64 59 54 54 53 56 57 60 50 55 55 58 44 35 28 16 30 41 47 53 60 66 65 64
37 36 36 36 35 45 58 67 69 65 62 56 50 57 60 61 59 63 70 69 70 63 56 55 53 45 65 66 61 43 28 23 35 41 44 48 56 59
33 25 32 37 48 59 72 83 76 71 63 57 54 59 58 61 65 62 60 57 60 55 51 42 47 48 45 46 77 77 64 40 33 37 38 45 48 49
34 25 29 36 49 60 67 64 70 71 68 63 56 57 52 51 44 46 55 54 49 45 28 25 32 28 28 30 27 33 47 63 64 42 43 44 49 52
40 27 36 50 54 55 58 60 59 59 59 60 58 59 53 47 40 33 36 41 46 50 41 34 21 19 22 33 33 19 19 35 60 63 53 45 45 48
37 33 44 52 50 52 60 63 59 52 48 50 53 54 50 45 38 34 35 36 40 43 35 38 36 27 27 33 34 23 17 18 17 40 63 52 53 55
27 34 40 47 50 57 67 75 57 48 47 53 59 53 47 44 36 35 37 37 39 38 35 35 43 39 29 34 34 37 34 21 15 12 37 55 60 59
31 31 39 49 52 61 71 81 63 50 44 46 51 52 53 47 40 34 38 30 31 38 37 36 41 44 36 34 36 37 31 25 17 30 3 38 40 49
33 33 43 54 56 69 76 87 76 65 58 53 49 49 48 44 35 26 20 23 34 32 30 26 23 31 38 41 43 30 26 33 22 20 5 9 19 30
32 36 48 54 59 69 80 90 88 73 65 59 54 46 38 38 29 21 22 28 32 27 32 30 29 31 29 30 30 31 25 22 15 14 6 9 14 23
34 39 46 53 58 63 77 87 91 87 69 62 61 48 33 25 22 17 15 18 21 22 23 20 19 26 21 20 17 18 23 19 10 15 16 14 13 14
31 41 48 51 55 61 73 82 90 92 74 63 64 44 20 16 19 16 16 18 13 15 19 18 21 27 27 15 18 17 20 30 17 16 13 12 8 8
38 44 46 49 54 58 65 78 86 93 78 59 54 41 25 17 15 14 12 8 16 26 26 20 20 27 25 23 22 17 13 24 29 17 11 11 7 3
57 51 50 52 55 57 63 75 82 91 86 56 37 31 25 23 23 24 33 38 32 21 6 7 14 23 25 18 21 19 11 19 19 14 12 9 12 8
70 68 59 55 54 58 65 74 78 85 84 61 29 24 27 33 31 21 17 15 10 14 17 20 22 22 20 14 23 18 14 15 17 16 18 13 9 5
Wind_Direction_500mb
314 318 303 298 299 304 303 300 306 307 306 310 311 307 305 312 316 318 308 307 287 285 259 229 238 249 243 227 217 221 229 254 280 273 262 259 260 260
304 303 307 310 304 303 309 304 299 298 302 306 305 299 287 296 302 302 313 306 294 281 262 252 248 248 235 241 246 241 251 232 258 267 257 259 262 262
307 307 299 306 302 296 293 289 287 287 295 294 290 293 291 289 299 310 312 300 297 288 279 269 252 249 254 250 242 233 247 252 231 249 253 251 258 260
294 305 308 301 302 305 302 297 295 290 294 301 297 294 291 286 287 293 297 295 289 289 281 280 290 274 258 249 248 240 243 235 237 241 251 247 246 253
312 304 304 313 322 314 311 311 311 307 295 296 298 298 304 306 294 285 289 294 289 285 280 280 279 279 269 268 248 242 236 235 233 240 248 249 241 240
314 317 321 323 304 310 309 307 307 305 303 304 301 296 298 301 303 305 305 294 289 273 270 268 282 286 278 266 259 249 239 232 235 241 246 246 247 233
320 323 312 297 310 308 307 306 308 309 308 306 302 304 306 296 302 297 293 299 293 292 295 275 260 251 273 265 262 252 247 239 238 241 243 245 247 236
326 314 318 323 306 299 300 303 303 305 306 305 302 299 298 297 296 296 293 294 304 288 302 274 276 259 247 203 265 247 246 247 246 246 247 248 247 241
325 314 314 318 326 332 334 328 323 316 302 298 299 299 298 297 297 293 289 290 289 292 290 295 278 272 257 255 243 246 240 247 241 242 241 241 245 245
304 314 319 322 327 325 325 322 318 316 319 310 298 294 293 294 291 289 285 283 288 285 281 289 288 285 263 262 266 252 229 230 226 230 227 234 241 245
320 328 320 335 337 329 320 321 319 320 321 311 302 298 296 295 284 283 281 283 279 287 286 291 280 283 285 265 252 262 258 243 222 216 222 227 236 241
324 330 347 327 327 324 322 320 315 316 314 314 315 310 307 308 303 277 274 276 272 282 301 276 284 281 296 302 266 258 260 259 247 245 222 223 234 240
322 330 332 334 336 334 332 328 321 316 310 311 312 312 314 309 314 300 280 276 264 267 274 267 263 289 275 298 299 306 271 255 251 257 239 228 228 240
331 335 325 335 337 345 344 337 324 316 310 312 312 316 322 317 300 300 294 273 267 267 269 266 261 256 273 291 301 297 320 284 285 250 240 239 239 237
321 315 332 335 341 344 348 350 339 332 321 320 316 315 319 316 294 280 285 279 269 267 262 257 251 249 267 270 288 306 302 298 303 294 235 245 241 231
316 326 339 344 344 349 352 357 353 347 334 322 315 317 322 321 306 277 265 274 268 260 260 261 248 244 257 270 273 282 294 287 241 330 150 213 227 227
320 332 339 341 347 353 356 360 359 354 349 340 335 324 315 325 316 301 273 267 251 255 264 266 244 239 249 263 271 262 281 275 279 329 296 217 227 231
330 329 330 339 348 351 357 358 1 358 354 351 342 336 322 327 322 302 268 271 270 266 251 243 237 245 250 251 248 254 261 275 296 302 321 273 266 239
331 329 332 341 346 350 356 356 357 2 357 350 349 346 334 335 326 299 276 277 270 265 264 255 238 222 237 241 256 244 244 240 261 264 313 326 310 281
322 332 342 343 346 352 352 352 358 1 358 355 359 357 348 348 339 307 280 271 266 253 261 247 230 217 217 227 251 262 255 217 225 255 298 313 311 41
350 350 351 350 351 351 350 352 357 356 360 3 9 18 19 9 349 332 310 272 259 264 272 266 232 212 212 225 251 255 274 200 222 253 266 270 196 221
11 3 359 357 353 351 355 353 353 358 1 12 15 20 20 13 346 345 330 316 303 275 270 161 172 178 192 222 244 234 204 193 217 240 224 198 156 160
15 12 8 3 358 356 357 354 354 356 359 6 11 357 357 21 12 5 7 38 77 126 141 146 156 172 204 200 231 194 178 164 163 170 164 154 147 134
Wind_Speed_850mb
55 44 47 60 67 61 54 54 61 70 63 56 58 53 56 55 45 46 47 42 51 44 50 60 45 48 47 54 54 43 38 34 36 38 31 31 31 29
50 64 65 52 51 56 50 49 50 59 71 60 60 62 63 66 61 54 46 42 43 37 37 39 54 52 59 72 65 63 73 41 41 47 39 38 35 33
58 48 49 52 46 46 48 53 56 56 62 68 67 70 75 79 72 56 48 46 49 45 45 44 51 69 73 78 70 67 66 68 57 59 49 41 40 34
53 54 41 49 55 53 52 51 54 61 70 75 76 79 71 60 57 59 55 45 34 39 51 53 49 51 56 62 60 62 61 65 67 60 53 46 41 39
52 44 48 45 43 44 47 54 53 46 49 59 65 62 61 59 70 75 67 57 40 32 34 44 44 46 43 46 55 65 65 68 71 67 59 53 47 43
44 38 39 38 43 52 51 50 49 55 59 61 57 58 56 54 52 51 53 60 58 35 38 33 34 31 30 37 45 53 65 71 73 72 67 60 53 50
37 37 34 43 37 39 43 55 63 58 58 60 56 53 53 52 53 56 60 51 65 61 59 27 32 19 17 29 38 48 51 60 65 67 67 65 59 57
36 45 44 40 36 48 48 47 53 59 60 61 64 65 64 62 58 58 61 64 65 62 48 56 48 32 19 8 15 36 50 57 60 62 66 68 64 58
37 43 47 36 37 39 48 54 55 49 48 55 61 63 64 59 54 54 53 56 57 60 50 55 55 58 44 35 28 16 30 41 47 53 60 66 65 64
37 36 36 36 35 45 58 67 69 65 62 56 50 57 60 61 59 63 70 69 70 63 56 55 53 45 65 66 61 43 28 23 35 41 44 48 56 59
33 25 32 37 48 59 72 83 76 71 63 57 54 59 58 61 65 62 60 57 60 55 51 42 47 48 45 46 77 77 64 40 33 37 38 45 48 49
34 25 29 36 49 60 67 64 70 71 68 63 56 57 52 51 44 46 55 54 49 45 28 25 32 28 28 30 27 33 47 63 64 42 43 44 49 52
40 27 36 50 54 55 58 60 59 59 59 60 58 59 53 47 40 33 36 41 46 50 41 34 21 19 22 33 33 19 19 35 60 63 53 45 45 48
37 33 44 52 50 52 60 63 59 52 48 50 53 54 50 45 38 34 35 36 40 43 35 38 36 27 27 33 34 23 17 18 17 40 63 52 53 55
27 34 40 47 50 57 67 75 57 48 47 53 59 53 47 44 36 35 37 37 39 38 35 35 43 39 29 34 34 37 34 21 15 12 37 55 60 59
31 31 39 49 52 61 71 81 63 50 44 46 51 52 53 47 40 34 38 30 31 38 37 36 41 44 36 34 36 37 31 25 17 30 3 38 40 49
33 33 43 54 56 69 76 87 76 65 58 53 49 49 48 44 35 26 20 23 34 32 30 26 23 31 38 41 43 30 26 33 22 20 5 9 19 30
32 36 48 54 59 69 80 90 88 73 65 59 54 46 38 38 29 21 22 28 32 27 32 30 29 31 29 30 30 31 25 22 15 14 6 9 14 23
34 39 46 53 58 63 77 87 91 87 69 62 61 48 33 25 22 17 15 18 21 22 23 20 19 26 21 20 17 18 23 19 10 15 16 14 13 14
31 41 48 51 55 61 73 82 90 92 74 63 64 44 20 16 19 16 16 18 13 15 19 18 21 27 27 15 18 17 20 30 17 16 13 12 8 8
38 44 46 49 54 58 65 78 86 93 78 59 54 41 25 17 15 14 12 8 16 26 26 20 20 27 25 23 22 17 13 24 29 17 11 11 7 3
57 51 50 52 55 57 63 75 82 91 86 56 37 31 25 23 23 24 33 38 32 21 6 7 14 23 25 18 21 19 11 19 19 14 12 9 12 8
70 68 59 55 54 58 65 74 78 85 84 61 29 24 27 33 31 21 17 15 10 14 17 20 22 22 20 14 23 18 14 15 17 16 18 13 9 5
Wind_Direction_850mb
314 318 303 298 299 304 303 300 306 307 306 310 311 307 305 312 316 318 308 307 287 285 259 229 238 249 243 227 217 221 229 254 280 273 262 259 260 260
304 303 307 310 304 303 309 304 299 298 302 306 305 299 287 296 302 302 313 306 294 281 262 252 248 248 235 241 246 241 251 232 258 267 257 259 262 262
307 307 299 306 302 296 293 289 287 287 295 294 290 293 291 289 299 310 312 300 297 288 279 269 252 249 254 250 242 233 247 252 231 249 253 251 258 260
294 305 308 301 302 305 302 297 295 290 294 301 297 294 291 286 287 293 297 295 289 289 281 280 290 274 258 249 248 240 243 235 237 241 251 247 246 253
312 304 304 313 322 314 311 311 311 307 295 296 298 298 304 306 294 285 289 294 289 285 280 280 279 279 269 268 248 242 236 235 233 240 248 249 241 240
314 317 321 323 304 310 309 307 307 305 303 304 301 296 298 301 303 305 305 294 289 273 270 268 282 286 278 266 259 249 239 232 235 241 246 246 247 233
320 323 312 297 310 308 307 306 308 309 308 306 302 304 306 296 302 297 293 299 293 292 295 275 260 251 273 265 262 252 247 239 238 241 243 245 247 236
326 314 318 323 306 299 300 303 303 305 306 305 302 299 298 297 296 296 293 294 304 288 302 274 276 259 247 203 265 247 246 247 246 246 247 248 247 241
325 314 314 318 326 332 334 328 323 316 302 298 299 299 298 297 297 293 289 290 289 292 290 295 278 272 257 255 243 246 240 247 241 242 241 241 245 245
304 314 319 322 327 325 325 322 318 316 319 310 298 294 293 294 291 289 285 283 288 285 281 289 288 285 263 262 266 252 229 230 226 230 227 234 241 245
320 328 320 335 337 329 320 321 319 320 321 311 302 298 296 295 284 283 281 283 279 287 286 291 280 283 285 265 252 262 258 243 222 216 222 227 236 241
324 330 347 327 327 324 322 320 315 316 314 314 315 310 307 308 303 277 274 276 272 282 301 276 284 281 296 302 266 258 260 259 247 245 222 223 234 240
322 330 332 334 336 334 332 328 321 316 310 311 312 312 314 309 314 300 280 276 264 267 274 267 263 289 275 298 299 306 271 255 251 257 239 228 228 240
331 335 325 335 337 345 344 337 324 316 310 312 312 316 322 317 300 300 294 273 267 267 269 266 261 256 273 291 301 297 320 284 285 250 240 239 239 237
321 315 332 335 341 344 348 350 339 332 321 320 316 315 319 316 294 280 285 279 269 267 262 257 251 249 267 270 288 306 302 298 303 294 235 245 241 231
316 326 339 344 344 349 352 357 353 347 334 322 315 317 322 321 306 277 265 274 268 260 260 261 248 244 257 270 273 282 294 287 241 330 150 213 227 227
320 332 339 341 347 353 356 360 359 354 349 340 335 324 315 325 316 301 273 267 251 255 264 266 244 239 249 263 271 262 281 275 279 329 296 217 227 231
330 329 330 339 348 351 357 358 1 358 354 351 342 336 322 327 322 302 268 271 270 266 251 243 237 245 250 251 248 254 261 275 296 302 321 273 266 239
331 329 332 341 346 350 356 356 357 2 357 350 349 346 334 335 326 299 276 277 270 265 264 255 238 222 237 241 256 244 244 240 261 264 313 326 310 281
322 332 342 343 346 352 352 352 358 1 358 355 359 357 348 348 339 307 280 271 266 253 261 247 230 217 217 227 251 262 255 217 225 255 298 313 311 41
350 350 351 350 351 351 350 352 357 356 360 3 9 18 19 9 349 332 310 272 259 264 272 266 232 212 212 225 251 255 274 200 222 253 266 270 196 221
11 3 359 357 353 351 355 353 353 358 1 12 15 20 20 13 346 345 330 316 303 275 270 161 172 178 192 222 244 234 204 193 217 240 224 198 156 160
15 12 8 3 358 356 357 354 354 356 359 6 11 357 357 21 12 5 7 38 77 126 141 146 156 172 204 200 231 194 178 164 163 170 164 154 147 134